BLOCK DM-SL R/B, 26452

Orbit data source: Space-Track

BLOCK DM-SL R/B, 26452 is space debris in HEO originally from a launch on Fri, 28 Jul 2000 UTC launched from the Sea Launch (SEAL). Debris objects in space refer to the collection of defunct objects orbiting the Earth. Examples of debris include non-operational satellites, rocket bodies, and fragments generated from explosions, collisions, or faulty payload assembly.

Loading next visibility...
Identifier
26452, 2000-043B
Orbit
HEO
Last TLE update
11 hours ago
Origin
Manufacturer
RKKE
Mission
Spacecraft
Bus & Motor
BLOK DM2, Unknown motor
Mass
~3,210 kg wet, ~3,210 kg dry
Launch date (UTC)
2000-07-28 (25 years ago)
Launch vehicle
Unknown
Launch site
Sea Launch (SEAL)
Object type
Payload
Rocket body
Debris
Shape & HBR
Cyl, 3.1 m
Radar Cross Section
23.684 m², Large (>1 m²)

Expand to show TLE details & history

TLE from 11 hours ago
0 BLOCK DM-SL R/B
1 26452U 00043B   25199.54383148 -.00000071  00000-0  00000-0 0  9997
2 26452   0.7580 189.9596 6720848  63.4527 155.0774  2.16746366197355
Epoch: 2025-07-18T13:03Z
TLE epoch observation values (Epoch: 2025-07-18T13:03:07.039Z)
Latitude
-0.63471°
Longitude
-65.58442°
Altitude
35,213.165 km
Speed
1.834 km/s
True Right ascension
04h 27m 09s
True Declination
0° 38' 03"
Sunlit
Object was in daylight at epoch
Visualization orbit readout
Latitude
-0.60133°
Longitude
-70.25456°
Altitude
34,131.208 km
Speed
1.969 km/s
Apparent Right ascension
03h 46m 56s
Apparent Declination
-5° 54' 40"
Sunlit
Object is in daylight
Visualization observer readout
Local Sidereal Time
12:23:25
Azimuth
292.757° NW
Elevation
-33.192°
Doppler factor
1
Orbital elements
Apogee altitude
35,801.215 km
Perigee altitude
1,893.723 km
Semi-major axis
25,225.606 km
Eccentricity
0.67208
Inclination
0.758°
RAAN
189.9596°
Arg. of periapsis
63.4527°
True anomaly
173.33863°
Mean anomaly
155.0774°
Eccentric anomaly
165.02662°
Mean motion
0.54173 °/min
Orbital period
664.54 mins
BSTAR
0
Loading maneuver chart data...
Loading SW <> Apogee altitude chart data...
Loading historical data...
Loading historical data...
Loading historical data...
Loading historical data...
Loading historical data...
Loading historical data...
Loading historical data...
Other satellites on launch #43 in the year 2000 (2000-07-28 UTC)
|